EW2997 Weather Reports


Display with metric or nautical units.
time (UTC)temp
F
wind
direction
speed
MPH
gust
MPH
rain 1hr
in
rain 24hr
in
rain mn
in
humidity
%
barometer
mb
20260903235247 77 216 2.0 2.0 0.00 0.37 0.37 91 1018.4
20260903232246 79 216 0.0 0.0 0.00 0.37 0.37 91 1018.4
20260903225246 80 216 0.0 0.0 0.00 0.37 0.37 88 1017.7
20260903222243 83 216 0.0 0.0 0.00 0.37 0.37 75 1018.0
20260903215243 85 226 3.0 3.0 0.00 0.37 0.37 69 1017.4
20260903212238 86 254 2.0 2.0 0.00 0.37 0.37 67 1017.7
20260903205235 85 234 2.0 2.0 0.00 0.37 0.37 67 1017.4
20260903202231 85 204 3.0 4.0 0.00 0.37 0.37 71 1018.0
20260903195228 83 210 2.0 2.0 0.00 0.37 0.37 73 1018.4
20260903192228 83 243 5.0 6.0 0.00 0.37 0.37 74 1018.7
20260903185227 81 192 1.0 1.0 0.00 0.37 0.37 71 1019.5
20260903182226 79 168 3.0 4.0 0.00 0.37 0.37 78 1020.2
20260903175225 76 240 2.0 2.0 0.00 0.37 0.37 86 1020.2
20260903172224 74 216 4.0 4.0 0.00 0.37 0.37 88 1020.5
20260903165220 74 235 5.0 5.0 0.00 0.37 0.37 87 1020.8
20260903162216 71 175 0.0 0.0 0.00 0.37 0.37 94 1021.5
20260903155213 71 206 0.0 0.0 0.01 0.37 0.37 94 1021.9
20260903152211 70 192 0.0 0.0 0.00 0.36 0.36 94 1022.5
20260903145209 69 216 2.0 2.0 0.18 0.36 0.36 95 1022.2
20260903142204 68 176 2.0 2.0 0.17 0.34 0.34 95 1021.5
20260903135159 70 312 1.0 1.0 0.00 0.03 0.03 91 1022.9
20260903132154 71 263 2.0 2.0 0.00 0.03 0.03 93 1021.9
20260903125149 71 195 2.0 2.0 0.00 0.03 0.03 93 1022.2
20260903122148 69 214 0.0 0.0 0.00 0.03 0.03 94 1021.5
20260903115142 68 186 2.0 2.0 0.03 0.03 0.03 95 1021.9
20260903112137 68 203 2.0 2.0 0.01 0.01 0.01 95 1022.2
20260903105137 68 268 3.0 3.0 0.00 0.00 0.00 93 1021.5
20260903102135 69 299 1.0 1.0 0.00 0.00 0.00 92 1022.2
20260903095134 70 84 2.0 2.0 0.00 0.00 0.00 88 1021.5
20260903092133 70 120 0.0 0.0 0.00 0.00 0.00 94 1021.9
20260903085133 70 264 0.0 0.0 0.00 0.00 0.00 97 1021.2
20260903082129 69 264 0.0 0.0 0.00 0.00 0.00 97 1021.2
20260903075125 69 253 0.0 0.0 0.00 0.00 0.00 97 1020.5
20260903072125 69 253 0.0 0.0 0.00 0.00 0.00 97 1020.2
20260903065123 68 253 0.0 0.0 0.00 0.00 0.00 97 1020.5
20260903062123 68 253 0.0 0.0 0.00 0.00 0.00 97 1020.5
20260903055121 69 253 0.0 0.0 0.00 0.00 0.00 97 1020.2
20260903052118 69 253 1.0 1.0 0.00 0.00 0.00 97 1020.2
20260903045116 69 253 0.0 0.0 0.00 0.00 0.00 97 1020.2
20260903042115 69 253 0.0 0.0 0.00 0.00 0.00 97 1020.5
20260903035112 69 253 0.0 0.0 0.00 0.29 0.29 97 1020.5
20260903032111 69 253 0.0 0.0 0.00 0.29 0.29 97 1021.2
20260903025106 69 253 2.0 2.0 0.00 0.29 0.29 97 1020.5
20260903022101 70 253 0.0 0.0 0.00 0.29 0.29 97 1020.5
20260903015100 70 253 0.0 0.0 0.00 0.29 0.29 96 1020.8
20260903012059 71 253 0.0 0.0 0.00 0.29 0.29 96 1020.8
20260903005055 72 253 0.0 0.0 0.00 0.29 0.29 96 1020.5
20260903002054 73 253 0.0 0.0 0.00 0.29 0.29 95 1020.5